Regional Weather Roundup
Issued by NWS Sterling, VA

Home | Current Version | Previous Version | Graphics & Text | Print | Product List | Glossary On
Versions: 1 2 3 4 5 6 7 8 9 10 11 12 13 14 15 16 17 18 19 20 21 22 23 24 25 26 27 28 29 30 31 32 33 34 35 36 37 38 39 40 41 42 43 44 45 46 47 48 49 50
000
ASUS41 KLWX 220310
RWRLWX

REGIONAL WEATHER ROUNDUP
NATIONAL WEATHER SERVICE BALTIMORE MD/WASHINGTON DC
1100 PM EDT THU MAY 21 2015

Note: "FAIR" indicates few or no clouds below 12,000 feet
with no significant weather and/or obstructions to visibility.
 TC=TEMPERATURE CELSIUS

 * =Non NWS site. Station does not report precipitation (e.g. rain,
    snow, etc.), thunder, or fog.

DCZ001-MDZ009-015-VAZ040>042-051-053>054-220400-
WASHINGTON METRO

CITY           SKY/WX    TMP DP  RH WIND       PRES   REMARKS
WASHINGTON NAT MOCLDY    54  48  80 NW8       29.96S
DULLES         MOCLDY    52  49  89 W3        29.97R
ANDREWS AFB    MOCLDY    51  49  95 NW3       29.94S
FT BELVOIR     MOCLDY    50  48  93 CALM      29.96S FOG
QUANTICO       CLOUDY    54  49  83 NW5       29.97S
COLLEGE PARK*  MOCLDY    52  50  93 CALM      29.95S
LEESBURG*      CLOUDY    54  54 100 W3        29.98R
GAITHERSBURG*  MOCLDY    48  45  87 NW6       29.99S

$$

MDZ006>007-011-014-220400-
BALTIMORE METRO

CITY           SKY/WX    TMP DP  RH WIND       PRES   REMARKS
BWI AIRPORT    PTCLDY    50  48  93 W7        29.94S
MD SCIENCE CTR   N/A     53  47  79 MISG      29.94F
MARTIN STATE   PTCLDY    50  50 100 CALM      29.95S
ANNAPOLIS      MOCLDY    52  48  86 W7        29.93S
FORT MEADE*    PTCLDY    46  46 100 CALM      29.97S

$$

MDZ012-015-019>023-220400-
MARYLAND EASTERN SHORE

CITY           SKY/WX    TMP DP  RH WIND       PRES   REMARKS
OCEAN CITY     CLOUDY    53  51  93 N9        29.88S
SALISBURY      CLOUDY    52  51  97 N7        29.90R
BAY BRIDGE AP*   N/A    N/A N/A N/A NW9       29.94R
CAMBRIDGE*     CLOUDY    54  50  87 N8        29.92R
EASTON*        MOCLDY    52  52 100 CALM      29.97R

$$

MDZ017>025-220400-
SOUTHERN MARYLAND

CITY           SKY/WX    TMP DP  RH WIND       PRES   REMARKS
PATUXENT RIVER MOCLDY    54  50  86 NW15      29.93R
ST INIGOES     CLOUDY    54  51  90 NW8       29.93R
LEONARDTOWN*   CLOUDY    52  48  87 W5        29.95R

$$

MDZ003>005-220400-
NORTH CENTRAL MARYLAND

CITY           SKY/WX    TMP DP  RH WIND       PRES   REMARKS
FREDERICK*     CLOUDY    52  50  93 CALM      29.99S
HAGERSTOWN APT LGT RAIN  53  51  93 W7        29.97R FOG
WESTMINSTER*   CLOUDY    52  48  87 W7        29.95S

$$

MDZ501>502-220400-
WESTERN MARYLAND

CITY           SKY/WX    TMP DP  RH WIND       PRES   REMARKS
OAKLAND*       CLOUDY    41 N/A N/A NW7       30.02R FOG
CUMBERLAND*    MOCLDY    52  46  82 W6        30.05S

$$

VAZ025>031-220400-
SHENANDOAH VALLEY

CITY           SKY/WX    TMP DP  RH WIND       PRES   REMARKS
WINCHESTER*    CLOUDY    54  46  76 NW10      29.98S
FRONT ROYAL*   CLOUDY    52  52 100 CALM      29.97S
LURAY*         CLOUDY    55  52  88 NW9       29.99R
NEW MARKET*    CLOUDY    54  49  85 N5        29.99R
STAUNTON*      CLOUDY    55  52  89 NE3       30.00S
WAYNESBORO*    CLOUDY    53  51  95 W3        30.00R

$$

WVZ021-048>050-054>055-220400-
EASTERN WEST VIRGINIA PANHANDLE

CITY           SKY/WX    TMP DP  RH WIND       PRES   REMARKS
MARTINSBURG    CLOUDY    54  50  86 NW8       29.98R
PETERSBURG*    CLOUDY    52  46  78 CALM      30.05R

$$

VAZ036>039-050-220400-
CENTRAL FOOTHILLS

CITY           SKY/WX    TMP DP  RH WIND       PRES   REMARKS
CHARLOTTESVILL CLOUDY    54  52  93 CALM      29.98R
CULPEPER*      CLOUDY    53  51  95 W3        29.99R
ORANGE*        MOCLDY    52  52 100 CALM      29.99S
GORDONSVILLE*  CLOUDY    52  51  95 CALM      29.97S FOG
WARRENTON*     CLOUDY    54  53  97 CALM      29.97R

$$

VAZ055>057-220400-
NORTH AND CENTRAL PIEDMONT

CITY           SKY/WX    TMP DP  RH WIND       PRES   REMARKS
FREDERICKSBRG* CLOUDY    54  54 100 NW6       29.96S
STAFFORD*      CLOUDY    50  49  97 CALM      30.01R FOG

$$

NCZ024-NYZ072-PAZ021-071-VAZ022-071-220400-
OTHER REGIONAL OBSERVATIONS

CITY           SKY/WX    TMP DP  RH WIND       PRES   REMARKS
NEW YORK CITY  CLOUDY    55  44  66 CALM      29.92F
PHILADELPHIA   CLOUDY    54  49  83 NW3       29.92F
PITTSBURGH     PTCLDY    48  41  76 W5        30.03R
ROANOKE        MOCLDY    57  45  64 W12       30.04R
RICHMOND       CLOUDY    55  52  89 NW8       29.96R
RALEIGH        PTCLDY    59  55  87 VRB3      29.96R

$$

ANZ530>537-220400-
MARINE OBSERVATIONS

STATION/POSITION TIME  TEMP    WIND        PRES
                       AIR SEA DIR/SP/G
                 (UTC) (F)     (DEG/KT/KT) (MB)
THOMAS PT LIGHT  0300   53 65  310/ 11/ 12 1014.2R
BALT KEY BRIDGE  0200   54     310/  8/ 10 1013.6R
COVE POINT       0200   55      20/ 10/ 16 1013.5F
LEWISETTA        0200   56 69              1012.7R
PINEY POINT      0200          360/ 10/ 12   N/A

$$



USA.gov is the U.S. government's official web portal to all federal, state and local government web resources and services.